GW0421 Weather Reports


time (UTC)temp
C
wind
direction
speed
KPH
gust
KPH
rain 1hr
cm
rain 24hr
cm
rain mn
cm
humidity
%
barometer
mb
20260507164022 18 198 22.5 35.4 0.00 0.00 0.00 42 1014.3
20260507163542 17 264 24.1 35.4 0.00 0.00 0.00 41 1014.4
20260507163116 17 229 22.5 33.8 0.00 0.00 0.00 43 1014.2
20260507162519 17 238 20.9 37.0 0.00 0.00 0.00 45 1014.2
20260507162040 17 225 19.3 37.0 0.00 0.00 0.00 47 1014.3
20260507161654 16 221 20.9 33.8 0.00 0.00 0.00 46 1014.5
20260507161020 16 229 22.5 33.8 0.00 0.00 0.00 46 1014.6
20260507160542 16 223 20.9 30.6 0.00 0.00 0.00 49 1014.8
20260507160214 16 225 24.1 30.6 0.00 0.00 0.00 48 1014.7
20260507155522 15 229 20.9 32.2 0.00 0.00 0.00 50 1014.7
20260507155047 15 205 19.3 24.1 0.00 0.00 0.00 52 1014.9
20260507154656 15 224 19.3 24.1 0.00 0.00 0.00 54 1014.9
20260507154023 14 232 20.9 33.8 0.00 0.00 0.00 56 1015.1
20260507153521 13 221 20.9 33.8 0.00 0.00 0.00 57 1015.0
20260507153156 13 283 20.9 30.6 0.00 0.00 0.00 59 1015.0
20260507152539 13 273 24.1 30.6 0.00 0.00 0.00 59 1014.9
20260507152019 13 289 20.9 30.6 0.00 0.00 0.00 61 1015.2
20260507151652 12 271 22.5 30.6 0.00 0.00 0.00 63 1015.2
20260507151026 12 360 20.9 29.0 0.00 0.00 0.00 65 1015.3
20260507150543 12 273 19.3 30.6 0.00 0.00 0.00 65 1015.2
20260507150211 12 360 17.7 32.2 0.00 0.00 0.00 66 1015.2
20260507145529 11 360 24.1 32.2 0.00 0.05 0.00 66 1015.1
20260507145018 11 360 22.5 30.6 0.00 0.05 0.00 69 1015.1
20260507144656 11 237 22.5 32.2 0.00 0.05 0.00 71 1015.2
20260507144022 11 245 25.7 32.2 0.00 0.05 0.00 70 1015.2
20260507143523 10 239 20.9 32.2 0.00 0.05 0.00 74 1015.2
20260507143158 10 240 22.5 32.2 0.00 0.05 0.00 74 1015.5
20260507142522 10 246 24.1 32.2 0.00 0.05 0.00 75 1015.6
20260507142040 10 255 24.1 32.2 0.00 0.05 0.00 77 1015.4
20260507141632 10 266 22.5 33.8 0.00 0.05 0.00 78 1015.5
20260507141028 9 245 19.3 32.2 0.00 0.05 0.00 81 1015.5
20260507140522 8 238 25.7 32.2 0.00 0.05 0.00 81 1015.6
20260507140151 8 235 22.5 30.6 0.00 0.05 0.00 82 1015.7
20260507135523 8 236 24.1 30.6 0.00 0.05 0.00 83 1015.7
20260507135027 8 244 22.5 30.6 0.00 0.05 0.00 85 1015.9
20260507134655 7 224 22.5 32.2 0.00 0.05 0.00 85 1016.0
20260507134037 7 232 20.9 30.6 0.00 0.05 0.00 86 1016.3
20260507133535 7 245 20.9 30.6 0.00 0.05 0.00 87 1016.0
20260507133213 7 360 17.7 29.0 0.00 0.05 0.00 88 1016.2
20260507132539 6 271 20.9 29.0 0.00 0.05 0.00 88 1016.2
20260507132022 6 281 20.9 29.0 0.00 0.05 0.00 89 1016.3
20260507131633 6 269 19.3 25.7 0.00 0.05 0.00 90 1016.1
20260507131032 6 273 17.7 27.4 0.00 0.05 0.00 91 1015.9
20260507130534 6 250 14.5 25.7 0.00 0.05 0.00 91 1015.7
20260507130212 5 227 19.3 25.7 0.00 0.05 0.00 91 1016.0
20260507125539 5 239 12.9 24.1 0.00 0.08 0.00 92 1016.2
20260507125032 5 227 17.7 24.1 0.00 0.08 0.00 92 1016.3
20260507124635 5 230 16.1 19.3 0.00 0.08 0.00 92 1016.2
20260507124019 4 225 12.9 19.3 0.00 0.08 0.00 92 1016.2
20260507123538 4 229 12.9 17.7 0.00 0.08 0.00 92 1016.2
20260507123124 3 227 12.9 16.1 0.00 0.08 0.00 92 1016.2
20260507122533 3 207 12.9 17.7 0.00 0.08 0.00 92 1016.1
20260507122037 3 244 11.3 17.7 0.00 0.08 0.00 93 1016.1
20260507121705 3 234 11.3 16.1 0.00 0.08 0.00 92 1016.1
20260507121022 3 247 9.7 16.1 0.00 0.08 0.00 92 1016.2
20260507120537 3 242 11.3 16.1 0.00 0.08 0.00 92 1016.1
20260507120130 3 247 8.0 14.5 0.00 0.08 0.00 92 1016.1
20260507115518 3 234 9.7 16.1 0.00 0.08 0.00 92 1016.2
20260507115023 3 229 11.3 16.1 0.00 0.08 0.00 92 1016.0
20260507114654 3 223 9.7 14.5 0.00 0.08 0.00 92 1016.1
20260507114042 3 224 8.0 14.5 0.00 0.08 0.00 92 1016.0
20260507113520 3 217 8.0 14.5 0.00 0.08 0.00 92 1016.0
20260507113154 3 215 8.0 14.5 0.00 0.08 0.00 91 1016.2
20260507112541 3 239 9.7 12.9 0.00 0.08 0.00 92 1016.0
20260507112023 3 225 6.4 11.3 0.00 0.08 0.00 91 1016.1
20260507111630 3 224 8.0 14.5 0.00 0.08 0.00 92 1016.0
20260507111036 3 236 8.0 16.1 0.00 0.08 0.00 92 1016.2
20260507110544 3 246 9.7 16.1 0.00 0.08 0.00 92 1016.3
20260507110117 3 244 11.3 16.1 0.00 0.08 0.00 92 1016.5
20260507105522 3 245 9.7 14.5 0.00 0.08 0.00 92 1016.4
20260507105022 3 242 9.7 14.5 0.00 0.08 0.00 91 1016.3
20260507104652 3 243 8.0 14.5 0.00 0.08 0.00 91 1016.4
20260507104020 3 241 9.7 14.5 0.00 0.08 0.00 91 1016.4
20260507103523 3 238 9.7 14.5 0.00 0.08 0.00 91 1016.4
20260507103115 3 247 9.7 14.5 0.00 0.08 0.00 91 1016.6
20260507102518 3 244 8.0 12.9 0.00 0.08 0.00 91 1016.4
20260507102037 3 237 8.0 14.5 0.00 0.08 0.00 91 1016.4
20260507101650 3 238 8.0 14.5 0.00 0.08 0.00 91 1016.5
20260507101031 3 232 6.4 12.9 0.00 0.08 0.00 91 1016.4
20260507100543 3 238 6.4 14.5 0.00 0.08 0.00 91 1016.7
20260507100125 3 248 8.0 16.1 0.00 0.08 0.00 91 1016.6
20260507095540 3 240 9.7 16.1 0.00 0.08 0.00 91 1016.5
20260507095034 3 241 9.7 14.5 0.00 0.08 0.00 92 1016.7
20260507094629 3 238 6.4 12.9 0.00 0.08 0.00 91 1016.7
20260507094018 3 246 4.8 12.9 0.00 0.08 0.00 91 1016.7
20260507093528 3 242 4.8 11.3 0.00 0.08 0.00 91 1016.8
20260507093150 3 248 4.8 12.9 0.00 0.08 0.00 91 1016.7
20260507092534 3 250 4.8 8.0 0.00 0.08 0.00 91 1016.8
20260507092025 3 240 4.8 8.0 0.00 0.08 0.00 91 1016.8
20260507091649 3 239 4.8 11.3 0.00 0.08 0.00 90 1016.8
20260507091024 2 238 6.4 11.3 0.00 0.08 0.00 91 1017.2
20260507090536 2 240 4.8 8.0 0.00 0.08 0.00 91 1017.2
20260507090207 2 244 3.2 6.4 0.00 0.08 0.00 90 1017.2
20260507085525 2 223 3.2 6.4 0.00 0.08 0.00 89 1017.0
20260507085017 3 229 3.2 6.4 0.00 0.08 0.00 90 1017.2
20260507084616 3 232 1.6 4.8 0.00 0.08 0.00 90 1017.2
20260507084031 3 240 1.6 6.4 0.00 0.08 0.00 90 1017.3
20260507083544 3 240 3.2 6.4 0.00 0.08 0.00 90 1017.3
20260507083148 3 243 1.6 6.4 0.00 0.08 0.00 90 1017.4
20260507082538 3 243 4.8 6.4 0.00 0.08 0.00 90 1017.4
20260507082022 3 248 3.2 6.4 0.00 0.08 0.00 89 1017.5
20260507081614 3 246 3.2 4.8 0.00 0.08 0.00 89 1017.5
20260507081030 3 244 3.2 6.4 0.00 0.08 0.00 89 1017.7
20260507080526 3 246 3.2 8.0 0.00 0.08 0.00 89 1017.7
20260507080141 3 250 4.8 8.0 0.00 0.08 0.00 89 1017.9
20260507075546 3 254 3.2 8.0 0.00 0.18 0.00 89 1017.9
20260507075025 4 247 4.8 12.9 0.00 0.18 0.00 89 1018.0
20260507074645 4 249 6.4 12.9 0.00 0.18 0.00 89 1018.0
20260507074032 4 256 6.4 12.9 0.00 0.18 0.00 89 1018.1
20260507073526 4 255 4.8 8.0 0.00 0.18 0.00 88 1018.2
20260507073150 4 241 3.2 6.4 0.00 0.18 0.00 88 1018.2
20260507072540 4 257 3.2 9.7 0.00 0.18 0.00 88 1018.3
20260507072030 4 259 4.8 9.7 0.00 0.18 0.00 88 1018.3
20260507071656 5 262 3.2 9.7 0.00 0.18 0.00 88 1018.3
20260507071038 5 259 3.2 9.7 0.00 0.18 0.00 88 1018.4
20260507070520 5 262 4.8 9.7 0.00 0.18 0.00 88 1018.4
20260507070204 5 263 4.8 9.7 0.00 0.18 0.00 88 1018.3
20260507065539 5 248 3.2 6.4 0.00 0.23 0.00 87 1018.5
20260507065039 5 248 1.6 6.4 0.00 0.23 0.00 87 1018.3
20260507064612 5 259 3.2 9.7 0.00 0.23 0.00 87 1018.3
20260507064044 5 264 4.8 11.3 0.00 0.23 0.00 87 1018.3
20260507063539 5 264 3.2 6.4 0.00 0.23 0.00 87 1018.4
20260507063132 5 269 3.2 6.4 0.00 0.23 0.00 87 1018.4
20260507062532 5 281 3.2 6.4 0.00 0.23 0.00 87 1018.4
20260507062043 5 279 3.2 6.4 0.00 0.23 0.00 87 1018.5
20260507061656 6 281 3.2 6.4 0.00 0.23 0.00 86 1018.5
20260507061021 6 284 3.2 6.4 0.00 0.23 0.00 86 1018.5
20260507060526 6 286 3.2 8.0 0.00 0.23 0.00 86 1018.4
20260507060200 6 286 3.2 11.3 0.00 0.23 0.00 86 1018.4
20260507055532 6 289 4.8 11.3 0.00 0.23 0.00 86 1018.5
20260507055037 6 280 4.8 11.3 0.00 0.23 0.00 86 1018.6
20260507054643 6 280 8.0 12.9 0.00 0.23 0.00 86 1018.5
20260507054040 6 277 8.0 14.5 0.00 0.23 0.00 86 1018.6
20260507053526 6 288 8.0 16.1 0.00 0.23 0.00 86 1018.8
20260507053148 6 286 11.3 16.1 0.00 0.23 0.00 86 1018.9
20260507052522 6 285 11.3 14.5 0.00 0.23 0.00 85 1018.9
20260507052021 6 288 8.0 12.9 0.00 0.23 0.00 85 1018.8
20260507051659 6 286 8.0 11.3 0.00 0.23 0.00 85 1018.9
20260507051032 6 287 4.8 8.0 0.00 0.23 0.00 84 1018.6
20260507050532 6 282 4.8 6.4 0.00 0.23 0.00 84 1018.5
20260507050218 6 275 3.2 8.0 0.00 0.23 0.00 84 1018.6
20260507045529 6 283 4.8 8.0 0.00 0.23 0.23 83 1018.5
20260507045019 6 281 3.2 6.4 0.00 0.23 0.23 83 1018.6
20260507044701 6 284 3.2 6.4 0.00 0.23 0.23 83 1018.5
20260507044047 6 286 4.8 6.4 0.00 0.23 0.23 82 1018.6
20260507043536 6 286 3.2 8.0 0.00 0.23 0.23 82 1018.7
20260507043151 7 298 4.8 8.0 0.00 0.23 0.23 81 1018.9
20260507042516 7 305 3.2 6.4 0.00 0.23 0.23 81 1019.0
20260507042028 7 294 3.2 6.4 0.00 0.23 0.23 81 1019.1
20260507041637 7 285 4.8 6.4 0.00 0.23 0.23 81 1019.2
20260507041030 7 279 3.2 4.8 0.00 0.23 0.23 80 1019.1
20260507040522 8 311 1.6 3.2 0.00 0.23 0.23 80 1019.1
20260507040133 8 71 0.0 3.2 0.00 0.23 0.23 80 1018.9
20260507035523 8 61 0.0 0.0 0.00 0.23 0.23 79 1018.9
20260507035043 8 71 0.0 0.0 0.00 0.23 0.23 79 1018.8
20260507034633 8 55 0.0 0.0 0.00 0.23 0.23 80 1018.8
20260507034040 8 53 0.0 0.0 0.00 0.23 0.23 79 1018.8
20260507033534 8 50 0.0 1.6 0.00 0.23 0.23 79 1018.8
20260507033147 8 49 0.0 1.6 0.00 0.23 0.23 78 1018.7
20260507032545 8 46 0.0 0.0 0.00 0.23 0.23 77 1018.6
20260507032044 8 46 0.0 0.0 0.00 0.23 0.23 76 1018.6
20260507031649 9 47 0.0 0.0 0.00 0.23 0.23 76 1018.5
20260507031021 9 46 0.0 3.2 0.00 0.23 0.23 76 1018.5
20260507030522 9 46 0.0 3.2 0.00 0.23 0.23 75 1018.4
20260507030125 9 47 0.0 0.0 0.00 0.23 0.23 75 1018.4
20260507025521 10 271 0.0 0.0 0.00 0.23 0.23 75 1018.3
20260507025037 10 247 0.0 3.2 0.00 0.23 0.23 76 1018.3
20260507024628 10 293 0.0 3.2 0.00 0.23 0.23 75 1018.3
20260507024019 10 306 0.0 1.6 0.00 0.23 0.23 76 1018.4
20260507023523 10 306 0.0 0.0 0.00 0.23 0.23 75 1018.5
20260507023151 10 306 0.0 0.0 0.00 0.23 0.23 74 1018.5
20260507022540 10 306 0.0 0.0 0.00 0.23 0.23 73 1018.4
20260507022037 10 306 0.0 0.0 0.00 0.23 0.23 73 1018.4
20260507021642 10 306 0.0 4.8 0.00 0.23 0.23 74 1018.4
20260507021033 10 307 0.0 4.8 0.00 0.23 0.23 73 1018.4
20260507020531 10 300 1.6 4.8 0.00 0.23 0.23 72 1018.3
20260507020157 10 300 3.2 4.8 0.00 0.23 0.23 72 1018.2
20260507015526 10 300 3.2 6.4 0.00 0.28 0.23 71 1018.0
20260507015020 10 301 3.2 6.4 0.00 0.28 0.23 70 1017.9
20260507014637 10 298 4.8 8.0 0.00 0.28 0.23 70 1017.9
20260507014042 11 287 4.8 8.0 0.00 0.28 0.23 69 1018.0
20260507013545 11 295 4.8 8.0 0.00 0.28 0.23 68 1017.9
20260507013150 11 301 4.8 9.7 0.00 0.28 0.23 68 1017.9
20260507012529 11 306 6.4 9.7 0.00 0.28 0.23 67 1018.1
20260507012044 11 304 6.4 11.3 0.00 0.28 0.23 66 1017.8
20260507011656 11 304 6.4 14.5 0.00 0.28 0.23 65 1017.8
20260507011026 11 287 6.4 14.5 0.00 0.28 0.23 63 1017.9
20260507010539 11 276 8.0 12.9 0.00 0.28 0.23 61 1017.9
20260507010151 11 262 4.8 9.7 0.00 0.28 0.23 60 1017.8
20260507005540 12 360 3.2 8.0 0.00 0.28 0.23 59 1018.0
20260507005041 12 360 3.2 9.7 0.00 0.28 0.23 59 1018.1
20260507004648 12 360 6.4 12.9 0.00 0.28 0.23 58 1018.1
20260507004031 12 360 4.8 12.9 0.00 0.28 0.23 58 1018.0
20260507003539 12 266 3.2 6.4 0.00 0.28 0.23 58 1017.9
20260507003158 12 273 1.6 11.3 0.00 0.28 0.23 57 1017.9
20260507002531 12 304 4.8 11.3 0.00 0.28 0.23 57 1017.9
20260507002021 12 275 1.6 8.0 0.00 0.28 0.23 58 1017.9
20260507001654 12 260 4.8 9.7 0.00 0.28 0.23 59 1017.7
20260507001022 12 312 4.8 9.7 0.00 0.28 0.23 58 1017.7
20260507000546 12 360 4.8 9.7 0.00 0.28 0.23 59 1017.7
20260507000205 12 360 3.2 8.0 0.00 0.28 0.23 58 1017.6
20260506235532 12 360 3.2 8.0 0.00 0.28 0.23 58 1017.8
20260506235030 12 360 3.2 9.7 0.00 0.28 0.23 57 1017.9
20260506234631 12 360 6.4 9.7 0.00 0.28 0.23 58 1017.9
20260506234044 12 360 3.2 9.7 0.00 0.28 0.23 57 1017.7
20260506233537 12 360 3.2 12.9 0.00 0.28 0.23 58 1017.9
20260506233117 12 306 0.0 12.9 0.00 0.28 0.23 58 1017.7
20260506232539 12 265 3.2 19.3 0.00 0.28 0.23 60 1017.8
20260506232044 12 360 3.2 19.3 0.00 0.28 0.23 62 1017.7
20260506231653 12 10 0.0 9.7 0.00 0.28 0.23 61 1017.9
20260506231038 12 41 6.4 9.7 0.00 0.28 0.23 62 1017.8
20260506230532 11 260 0.0 8.0 0.00 0.28 0.23 62 1017.7
20260506230118 11 300 1.6 8.0 0.00 0.28 0.23 62 1017.7
20260506225525 11 360 3.2 16.1 0.00 0.28 0.23 63 1017.6
20260506225025 11 360 4.8 16.1 0.00 0.28 0.23 65 1017.8
20260506224621 11 360 6.4 12.9 0.00 0.28 0.23 64 1017.6
20260506224022 11 360 0.0 6.4 0.00 0.28 0.23 64 1017.6
20260506223538 11 360 0.0 14.5 0.00 0.28 0.23 65 1017.7
20260506223153 11 360 6.4 14.5 0.00 0.28 0.23 66 1017.5
20260506222528 11 360 9.7 14.5 0.00 0.28 0.23 66 1017.6
20260506222033 11 360 1.6 6.4 0.00 0.28 0.23 66 1017.7
20260506221642 11 360 1.6 9.7 0.00 0.28 0.23 66 1017.7
20260506221038 11 360 4.8 9.7 0.00 0.28 0.23 67 1017.6
20260506220529 11 360 6.4 9.7 0.00 0.28 0.23 67 1017.7
20260506220128 11 360 4.8 14.5 0.00 0.28 0.23 67 1017.7
20260506215544 11 360 8.0 14.5 0.00 0.28 0.23 68 1017.7
20260506215041 11 360 3.2 12.9 0.00 0.28 0.23 67 1017.8
20260506214612 11 360 6.4 12.9 0.00 0.28 0.23 68 1017.8
20260506214044 10 360 8.0 12.9 0.00 0.28 0.23 69 1017.7
20260506213539 10 360 3.2 9.7 0.00 0.28 0.23 68 1017.7
20260506213125 10 360 6.4 9.7 0.00 0.28 0.23 68 1018.0
20260506212534 10 360 3.2 6.4 0.00 0.28 0.23 68 1018.0
20260506212050 10 360 0.0 9.7 0.00 0.28 0.23 68 1018.1
20260506211659 10 360 4.8 9.7 0.00 0.28 0.23 69 1018.1
20260506211044 10 160 0.0 8.0 0.00 0.28 0.23 69 1018.1
20260506210534 10 360 3.2 8.0 0.00 0.28 0.23 68 1018.1
20260506210226 10 360 3.2 8.0 0.00 0.28 0.23 69 1018.2
20260506205524 10 360 1.6 16.1 0.00 0.28 0.23 69 1018.2
20260506205027 10 360 1.6 16.1 0.00 0.28 0.23 70 1018.3
20260506204706 10 360 4.8 9.7 0.00 0.28 0.23 70 1018.3
20260506204036 10 360 4.8 9.7 0.00 0.28 0.23 70 1018.3
20260506203529 10 360 6.4 16.1 0.00 0.28 0.23 69 1018.3
20260506203157 10 360 4.8 8.0 0.00 0.28 0.23 69 1018.3
20260506202531 10 150 3.2 8.0 0.00 0.28 0.23 68 1018.4
20260506202023 10 177 3.2 8.0 0.00 0.28 0.23 68 1018.3
20260506201700 10 193 3.2 8.0 0.00 0.28 0.23 67 1018.3
20260506201039 10 360 0.0 9.7 0.00 0.28 0.23 67 1018.4
20260506200519 10 360 3.2 9.7 0.00 0.28 0.23 68 1018.3
20260506200215 10 360 0.0 6.4 0.00 0.28 0.23 68 1018.5
20260506195530 10 360 3.2 8.0 0.00 0.28 0.23 68 1018.5
20260506195031 10 360 3.2 9.7 0.00 0.28 0.23 68 1018.6
20260506194657 10 360 1.6 14.5 0.00 0.28 0.23 69 1018.5
20260506194040 10 167 1.6 16.1 0.00 0.28 0.23 69 1018.6
20260506193540 10 321 4.8 16.1 0.00 0.28 0.23 69 1018.6
20260506193152 10 360 4.8 12.9 0.00 0.28 0.23 69 1018.7
20260506192534 10 360 4.8 12.9 0.00 0.28 0.23 69 1018.8
20260506192048 10 360 3.2 8.0 0.00 0.28 0.23 69 1018.8
20260506191656 10 360 1.6 14.5 0.00 0.28 0.23 69 1018.6
20260506191036 10 360 4.8 14.5 0.00 0.28 0.23 70 1018.8
20260506190518 10 360 1.6 9.7 0.00 0.28 0.23 70 1018.8
20260506190219 10 360 4.8 9.7 0.00 0.28 0.23 71 1018.9
20260506185531 10 360 3.2 9.7 0.00 0.28 0.23 72 1018.9
20260506185043 10 360 3.2 12.9 0.00 0.28 0.23 72 1018.9
20260506184701 10 360 3.2 12.9 0.00 0.28 0.23 74 1018.9
20260506184016 9 360 3.2 14.5 0.00 0.28 0.23 75 1018.9
20260506183530 9 360 4.8 14.5 0.00 0.28 0.23 75 1019.0
20260506183148 9 360 4.8 12.9 0.00 0.28 0.23 77 1018.9
20260506182728 9 360 4.8 12.9 0.00 0.28 0.23 78 1019.0
20260506182021 8 360 6.4 12.9 0.00 0.28 0.23 79 1019.1
20260506181647 8 360 4.8 17.7 0.00 0.28 0.23 80 1019.1
20260506181019 8 360 8.0 17.7 0.00 0.28 0.23 80 1019.2
20260506180537 8 360 6.4 14.5 0.00 0.28 0.23 81 1019.3
20260506180140 8 360 4.8 14.5 0.00 0.28 0.23 82 1019.4
20260506175531 8 360 6.4 16.1 0.00 0.28 0.23 83 1019.3
20260506175019 8 360 4.8 14.5 0.00 0.28 0.23 82 1019.4
20260506174614 8 360 6.4 12.9 0.00 0.28 0.23 84 1019.4
20260506174032 8 148 4.8 12.9 0.00 0.28 0.23 84 1019.5
20260506173517 8 293 1.6 12.9 0.00 0.28 0.23 86 1019.3
20260506173134 8 101 3.2 12.9 0.00 0.28 0.23 87 1019.3
20260506172531 8 86 1.6 19.3 0.00 0.28 0.23 87 1019.2
20260506172020 8 360 3.2 14.5 0.00 0.28 0.23 88 1019.2
20260506171612 8 360 6.4 14.5 0.00 0.28 0.23 89 1019.1
20260506171028 7 169 6.4 12.9 0.00 0.28 0.23 89 1019.1
20260506170526 7 360 3.2 12.9 0.00 0.28 0.23 90 1019.1
20260506170349 7 120 4.8 14.5 0.00 0.28 0.23 90 1019.3
20260506165513 7 86 6.4 14.5 0.00 0.28 0.23 91 1019.4
20260506165020 7 55 3.2 9.7 0.00 0.28 0.23 91 1019.4
20260506164600 7 90 4.8 9.7 0.00 0.28 0.23 91 1019.4